Theta_e
330 330 331 332 331 331 330 331 331 331 330 329 330 329 328 328 327 327 325 327 328 329 328 327 326 328 330 330 331 330 331 332 333 334 334 336 337 341 340 341 340 341 339 338 337 336 335 334 333 333 333 333 332 332 331 331 331 331 330 330 330 329 329 328 328 328 327 327 327 327 327 327 327 327 326 326 326 326 326 325 326 327 328 328 328
331 331 331 331 332 331 331 330 331 330 330 329 329 328 327 325 325 326 326 327 328 330 327 327 328 328 329 330 330 331 332 333 333 334 334 334 335 340 341 340 339 340 340 338 337 336 335 335 334 334 333 332 332 332 331 332 331 330 328 330 330 329 329 328 328 327 327 328 328 328 327 327 327 326 326 326 326 326 325 325 325 325 325 326 326
331 331 332 332 331 332 332 331 331 330 330 330 330 329 328 328 327 326 326 326 327 327 327 326 326 328 329 330 329 331 331 333 333 333 333 333 333 336 340 340 340 340 340 339 338 336 335 334 335 334 334 334 334 333 333 332 332 331 331 328 328 328 327 328 328 327 327 328 327 327 326 326 326 326 326 325 325 326 326 325 325 325 325 325 325
331 330 331 330 330 331 331 331 331 330 330 330 331 329 329 329 330 329 329 329 327 327 325 326 325 327 328 329 329 330 331 332 332 332 332 332 333 334 335 338 341 341 340 339 338 338 336 335 335 335 335 335 335 334 334 333 332 331 331 330 328 328 328 328 327 327 328 327 327 327 326 327 326 326 326 326 326 326 326 325 325 325 325 325 324
330 331 331 329 330 330 330 330 330 330 330 330 330 330 330 328 328 329 328 327 326 326 326 326 326 326 328 329 329 330 330 331 330 332 332 332 333 334 334 337 338 338 339 340 338 339 338 336 336 335 336 336 336 336 335 334 332 332 331 329 329 328 328 327 326 328 327 327 327 326 327 326 326 326 326 325 325 325 326 325 325 325 324 324 324
330 329 327 327 328 329 329 328 328 329 330 329 328 329 329 329 329 330 329 325 324 323 323 326 326 326 327 328 328 328 329 330 331 332 333 333 333 334 334 334 334 336 339 340 339 339 338 339 335 336 335 336 337 336 337 335 334 333 331 330 329 329 328 328 328 327 328 327 326 327 326 326 326 326 326 325 325 325 325 325 324 324 323 323 323
330 329 325 325 326 326 326 326 328 330 329 328 329 329 329 329 328 327 326 326 326 326 324 324 325 326 326 328 329 330 331 331 331 332 332 332 333 333 333 334 334 333 332 333 338 339 338 338 338 334 333 336 336 336 337 336 336 333 332 330 329 329 328 329 328 328 328 328 327 326 326 326 326 325 325 325 325 325 325 324 324 324 324 323 323
328 327 325 325 325 325 325 328 330 330 329 327 328 327 327 327 327 327 326 325 325 324 325 324 325 325 326 328 330 331 331 332 331 331 331 332 332 332 331 330 330 335 335 332 334 338 336 337 337 338 338 337 337 336 336 336 335 334 333 333 331 330 329 329 328 328 327 327 328 327 326 326 325 325 325 324 325 324 325 324 324 324 324 323 323
328 327 326 325 325 325 326 329 330 330 328 326 326 326 327 326 326 328 328 325 325 325 324 324 325 325 327 329 330 331 331 331 330 330 330 330 331 330 329 332 334 334 330 332 332 335 338 338 339 338 338 339 337 337 336 336 336 336 335 334 334 332 331 330 329 330 328 329 329 328 327 326 325 325 325 324 324 325 324 324 324 323 324 323 323
328 327 326 326 326 327 327 330 330 328 327 326 326 326 326 327 326 328 328 325 324 324 324 324 325 326 327 328 329 330 330 331 331 331 330 330 330 331 330 331 331 330 330 331 332 332 333 335 336 337 337 335 336 338 336 335 335 335 333 334 334 333 332 333 332 331 329 329 329 328 328 326 325 326 324 324 324 324 324 324 323 323 323 323 323
329 328 326 329 327 328 328 329 328 327 327 326 326 326 325 325 326 325 325 324 324 324 324 325 326 326 326 327 328 328 330 331 331 330 331 331 333 333 332 331 331 330 330 330 330 331 330 330 331 333 335 336 336 337 337 337 336 335 333 333 334 333 333 333 333 332 331 330 329 329 328 327 326 327 325 324 324 324 324 324 323 323 323 323 323
330 329 328 327 327 329 329 329 326 327 326 325 325 324 325 324 325 326 324 324 325 325 326 326 326 325 325 326 328 328 328 329 329 328 328 329 329 331 330 331 331 331 331 330 329 329 329 329 330 329 331 333 333 333 334 334 334 334 333 333 333 333 333 333 333 333 332 332 331 330 329 328 328 328 326 325 325 324 325 324 323 324 323 323 323
329 328 327 330 328 326 327 327 326 327 326 326 325 325 327 327 326 325 323 321 324 324 324 325 323 321 323 323 324 326 328 328 328 328 327 327 330 329 329 329 329 328 330 330 329 328 328 328 328 328 328 329 329 331 330 331 332 333 334 333 333 333 334 335 333 334 331 332 332 332 331 330 329 329 328 328 326 326 325 325 323 323 323 323 323
329 328 329 329 326 326 326 326 326 325 326 325 324 326 327 326 326 323 322 321 322 325 322 321 318 319 318 318 321 323 326 326 327 328 328 328 329 328 327 327 327 328 330 329 329 327 326 325 327 327 327 327 327 327 327 328 330 331 332 331 333 334 334 335 334 334 333 332 332 332 331 331 330 330 329 329 329 327 326 326 325 324 324 323 323
328 329 328 327 326 326 325 325 325 327 326 325 325 324 325 326 324 323 320 322 324 324 323 320 317 317 318 318 314 316 320 323 326 326 327 328 329 329 329 327 328 329 329 327 326 328 327 327 327 328 328 329 328 327 326 327 328 328 330 331 333 335 335 335 334 334 334 333 331 331 331 331 331 331 331 330 330 330 328 327 327 326 325 324 323
328 329 328 326 326 326 325 325 325 327 325 324 324 324 324 324 323 322 322 320 320 322 324 322 319 319 314 312 313 315 312 315 318 322 327 327 327 327 328 327 327 328 328 326 325 328 328 328 328 328 328 328 327 324 323 324 326 326 328 329 331 334 335 335 334 333 332 332 333 332 330 330 331 331 331 331 330 330 330 329 328 327 326 326 325
326 327 327 324 324 324 324 324 325 324 324 324 323 324 325 324 323 322 321 321 318 318 323 323 322 321 316 312 311 310 311 315 318 319 324 325 327 328 327 326 325 326 327 327 328 328 327 326 325 325 324 324 322 321 322 323 323 325 324 327 328 332 334 334 333 333 333 331 330 331 330 329 329 329 329 328 328 329 329 330 330 329 328 327 326
324 325 326 325 323 323 323 324 324 324 324 325 324 323 323 323 323 323 319 317 321 318 321 322 322 323 318 317 314 313 313 318 317 311 322 325 325 325 325 325 327 326 327 327 326 326 326 324 323 320 318 318 318 318 320 322 324 323 324 325 323 324 325 332 333 332 334 332 333 332 332 329 329 328 328 328 328 328 329 330 330 330 330 330 329
321 322 323 324 323 322 323 324 324 324 326 323 323 323 324 325 324 322 321 320 320 319 319 319 320 320 319 319 321 319 322 317 313 316 313 319 323 323 323 326 327 326 326 325 325 323 321 319 317 316 314 314 315 316 317 318 320 322 324 323 321 319 319 322 332 334 337 336 336 334 335 333 331 330 330 330 329 329 329 329 330 330 330 330 330
318 319 321 323 322 321 321 322 323 323 326 323 324 323 323 325 325 323 321 323 322 322 319 319 321 319 318 319 319 319 316 315 320 318 316 314 316 322 324 325 326 325 324 322 321 320 317 316 314 314 313 313 313 314 315 316 317 319 320 319 320 319 318 317 317 320 331 334 334 333 332 329 328 326 326 326 327 326 328 329 329 330 330 330 330
316 318 320 322 325 321 320 320 320 323 325 321 322 323 323 323 323 322 322 321 321 321 322 320 318 318 317 316 317 317 317 318 317 319 318 315 315 317 318 323 323 322 319 317 316 315 314 314 314 312 313 312 313 313 314 314 315 317 318 317 318 317 317 316 314 314 316 327 328 328 327 326 325 324 322 322 322 322 323 323 324 325 326 327 328
315 315 317 320 321 321 318 319 319 322 323 320 320 321 321 322 322 322 320 320 319 322 322 320 318 318 319 318 316 316 317 317 317 319 318 319 315 315 317 317 315 317 318 314 312 312 312 312 311 311 311 311 312 313 313 314 315 316 316 315 316 315 316 314 310 314 316 318 323 324 324 324 323 322 321 320 320 319 319 320 320 321 322 323 324
314 315 315 317 319 321 318 319 321 324 321 320 320 321 319 320 319 320 320 320 319 320 318 318 318 319 317 319 318 318 316 314 316 317 318 317 316 316 318 318 316 314 312 312 311 310 310 310 310 310 311 311 311 312 312 314 314 315 315 314 316 314 313 309 307 309 313 318 319 319 319 319 319 318 318 317 317 316 316 317 317 317 318 319 320
312 313 314 317 319 319 320 318 318 317 317 317 317 317 317 317 318 319 318 318 319 320 318 318 317 317 317 317 318 315 313 317 318 318 319 318 317 315 316 316 315 313 311 312 310 309 309 309 309 310 310 310 311 312 312 313 313 313 313 314 313 312 313 311 307 306 305 311 315 317 318 318 317 316 316 316 315 314 314 314 315 315 314 315 318
312 313 312 315 318 317 317 317 316 316 315 315 314 315 315 315 315 314 315 318 318 317 318 318 318 319 318 317 317 316 316 318 318 319 320 320 318 315 315 317 313 313 316 311 310 310 310 310 310 310 309 309 309 309 310 311 311 311 310 311 311 310 310 312 311 308 305 304 307 313 315 316 316 316 315 314 313 312 311 310 309 308 308 309 312
312 312 312 315 316 317 316 314 314 314 314 313 312 313 312 312 312 313 313 311 313 315 316 314 314 314 317 317 317 317 316 318 319 320 319 318 316 315 313 314 314 312 313 310 310 308 309 310 310 310 309 308 308 308 309 310 311 311 310 309 310 308 308 308 310 308 305 303 304 308 310 311 312 312 312 311 310 309 307 306 306 307 307 307 308
312 313 314 313 313 313 314 313 313 313 313 313 312 311 312 312 312 312 311 310 311 312 310 311 312 312 314 317 316 317 317 318 320 320 321 320 318 316 314 310 310 309 308 308 305 308 308 309 309 309 309 310 308 308 308 310 311 310 307 307 308 306 306 307 309 310 307 305 303 303 304 306 306 308 308 308 308 307 308 308 306 305 306 308 309
312 312 312 313 313 314 313 311 310 310 311 311 311 310 310 311 310 310 311 313 310 309 309 309 309 310 312 314 318 316 317 318 320 320 320 320 319 317 316 313 308 305 306 307 306 307 308 308 309 309 309 308 307 308 311 309 309 307 306 305 306 307 305 304 305 306 305 305 304 304 303 302 304 306 307 308 308 308 307 307 306 305 305 308 308
313 312 311 311 312 312 311 310 309 309 310 310 309 309 309 310 309 309 309 308 310 307 308 309 308 308 310 313 316 316 317 318 319 319 319 319 319 318 316 313 311 307 305 305 306 306 308 307 306 308 308 308 308 308 308 307 309 306 305 305 305 307 306 304 303 303 302 301 301 302 302 304 306 307 308 307 307 307 307 306 306 305 306 307 308
313 313 310 311 313 315 310 309 308 308 309 308 308 308 309 308 308 308 307 309 309 309 309 308 308 310 309 309 312 314 316 318 318 318 318 318 317 317 316 314 314 309 305 305 306 304 308 307 306 308 308 308 308 309 308 307 311 305 305 304 305 308 305 304 303 302 302 302 300 301 301 303 304 307 308 307 306 306 306 306 305 306 307 305 307
313 311 310 310 309 308 308 308 308 307 307 308 308 308 309 309 309 308 307 307 308 308 308 309 309 309 308 308 309 311 314 317 317 317 317 317 317 316 314 313 311 311 308 307 305 307 309 310 309 306 308 308 308 308 308 308 310 307 306 305 305 308 306 306 304 304 303 303 301 302 306 304 304 306 305 306 306 307 305 305 307 306 305 304 303
310 310 310 309 308 308 307 308 307 306 307 306 307 308 308 307 307 307 306 307 307 307 307 307 307 307 308 307 307 308 310 313 315 316 316 316 317 316 315 313 310 311 310 306 306 307 307 310 309 306 308 309 308 307 308 308 311 309 307 306 307 310 305 306 304 304 304 303 302 302 305 304 303 306 305 304 302 304 303 299 304 304 304 302 302
310 309 309 308 308 309 308 309 307 307 307 307 307 308 308 307 307 306 306 307 307 306 308 308 307 308 308 308 307 307 309 311 311 312 314 314 314 315 315 312 309 310 310 307 307 306 305 303 305 305 308 309 308 308 307 308 309 310 307 306 309 307 306 305 305 303 302 302 301 301 301 301 300 303 300 298 299 301 301 300 302 303 302 300 299
310 309 308 309 309 309 309 308 307 307 307 307 307 307 308 307 307 307 306 306 306 305 306 307 307 307 307 308 307 307 307 307 308 309 310 311 312 313 313 313 311 309 309 306 305 306 307 303 304 304 308 309 308 307 309 308 308 309 308 306 305 305 304 305 304 304 301 301 301 301 301 301 301 300 299 299 299 300 301 300 299 298 300 299 298
309 309 309 309 309 309 309 308 307 307 308 308 307 307 307 307 307 306 306 306 307 307 307 307 307 306 308 308 307 308 308 308 307 307 307 308 309 312 312 310 311 309 308 304 305 305 306 305 304 305 307 307 309 306 307 308 308 308 309 307 305 304 305 305 304 303 300 300 301 302 301 301 300 300 299 300 299 299 299 300 299 299 298 298 297
309 309 308 309 309 309 309 308 308 307 308 309 308 308 308 308 308 306 306 306 306 306 307 307 307 307 308 308 308 308 308 307 306 307 306 306 307 309 310 309 309 307 307 304 306 305 305 305 302 304 305 307 306 301 304 304 305 307 309 306 304 303 305 304 304 304 303 302 302 301 301 301 300 299 299 299 299 299 299 299 300 299 299 299 298
309 308 310 309 308 308 309 309 308 307 308 309 308 307 308 308 308 307 307 306 306 306 306 306 312 307 308 309 307 307 307 308 307 307 307 307 306 306 306 305 306 306 306 304 304 304 305 305 304 302 303 303 302 302 303 303 304 305 305 305 304 304 306 306 304 303 303 301 301 301 299 299 299 299 299 299 299 299 299 299 300 300 300 300 299
309 309 309 308 309 308 308 309 309 308 308 308 308 308 308 307 307 306 307 306 306 306 306 306 310 306 308 307 307 307 307 309 308 307 307 307 306 307 305 304 303 305 305 303 304 304 305 305 304 303 304 304 304 305 304 305 306 304 304 304 304 304 305 305 305 304 304 302 303 302 301 300 300 299 300 299 298 298 298 299 299 300 299 299 298
310 309 308 309 310 309 309 309 309 309 309 308 308 307 308 308 308 307 307 307 307 307 307 307 308 307 307 307 307 307 308 308 308 308 308 307 308 307 307 306 305 304 304 304 303 303 303 303 303 304 304 303 304 305 304 305 305 305 306 304 304 303 304 304 304 303 303 303 300 298 299 299 301 301 299 298 298 299 299 299 299 300 299 298 297
311 310 310 309 309 309 308 309 309 310 309 309 307 307 308 308 308 307 308 309 310 310 310 309 309 309 309 308 309 309 308 308 309 308 308 308 307 308 306 306 305 305 304 304 302 302 302 302 303 303 303 304 304 304 303 305 305 304 303 303 303 303 303 301 301 302 301 302 301 301 300 300 299 299 298 299 299 298 299 299 300 300 299 297 297
311 311 310 310 309 309 309 309 310 310 309 310 309 308 309 309 308 308 308 310 310 311 311 311 311 311 311 310 310 310 311 312 309 308 308 308 308 308 306 306 306 306 305 305 303 302 302 303 303 302 303 303 303 304 303 303 303 304 303 302 301 301 301 301 300 300 300 300 300 299 299 300 300 300 299 300 301 300 299 299 299 299 297 296 296
310 311 310 310 309 310 310 310 309 310 310 310 312 307 307 310 309 309 310 310 310 311 312 311 311 311 312 311 312 317 314 311 307 302 301 303 306 309 308 306 307 306 306 305 304 303 303 302 303 304 303 303 302 303 304 303 301 301 302 303 301 299 299 299 299 299 299 299 300 299 298 299 299 298 299 299 299 299 300 301 300 299 297 296 296
310 311 311 310 309 309 310 310 309 309 311 311 305 301 300 303 310 310 311 311 311 311 311 311 312 312 312 311 310 314 315 312 308 299 299 299 300 301 301 303 306 308 306 305 305 304 303 303 303 303 304 303 302 302 303 302 301 304 303 302 301 299 300 299 298 299 299 299 299 299 298 298 298 298 296 297 298 299 299 299 297 297 296 296 296
310 308 308 308 308 309 309 309 309 309 310 308 302 301 299 298 304 312 311 311 311 311 312 312 312 312 312 312 311 312 313 313 311 307 302 298 298 298 297 297 298 300 301 308 307 304 304 304 302 304 304 304 303 301 301 300 301 300 299 300 299 299 298 299 298 297 297 298 299 298 297 297 297 298 298 296 298 299 298 298 296 296 296 296 296
310 309 308 309 308 306 308 310 309 308 309 303 299 300 299 298 297 304 312 312 312 312 312 312 312 312 312 312 312 312 313 315 316 310 308 306 299 298 298 298 298 297 296 296 299 310 308 307 305 304 304 303 301 301 303 302 302 301 298 298 297 297 298 297 296 296 298 297 297 297 297 296 296 298 297 298 297 298 298 296 296 296 296 296 295
308 308 309 308 307 307 308 308 308 307 308 301 295 293 294 295 295 298 311 312 312 312 312 312 312 312 312 312 312 312 312 313 313 310 308 307 305 303 303 303 304 302 297 296 295 294 301 309 308 306 306 304 305 303 304 302 302 300 299 298 297 296 296 297 296 296 296 296 299 297 295 296 294 296 296 298 297 297 298 297 294 295 296 295 295
305 305 305 304 305 305 305 306 307 308 308 296 295 294 292 292 292 295 307 309 311 311 312 312 312 312 312 312 312 312 312 312 312 309 308 307 305 304 303 302 303 302 301 301 302 303 305 306 307 309 308 305 306 305 303 302 304 302 302 300 299 298 295 294 295 295 296 295 296 297 295 296 293 295 296 297 296 297 297 295 295 295 295 295 295
300 301 301 301 302 304 305 305 305 307 308 297 296 295 294 293 293 301 305 308 309 310 310 311 311 312 312 311 311 311 312 312 308 301 303 307 305 305 304 301 300 299 298 296 293 294 300 304 305 306 306 305 301 303 300 300 298 297 297 296 296 296 296 295 294 294 294 295 294 296 294 294 293 293 295 296 295 295 297 297 294 294 295 295 295
297 298 298 299 300 300 301 302 303 303 304 299 294 295 294 294 297 303 305 306 308 309 310 311 311 311 311 311 311 311 311 311 305 299 296 300 306 305 304 302 300 300 299 298 293 292 292 292 292 291 292 293 294 293 292 293 296 298 298 297 295 295 295 294 294 293 294 293 295 295 294 293 293 293 293 295 294 294 295 296 297 294 294 294 294
295 296 297 297 297 298 298 299 301 300 300 299 294 294 294 294 297 303 306 307 307 307 308 309 309 309 309 308 312 312 311 311 302 298 294 300 306 305 304 302 300 300 299 298 298 296 292 292 292 292 292 292 292 292 292 292 293 296 299 297 295 295 295 295 294 294 293 294 295 295 294 292 292 291 291 293 292 293 294 295 295 296 294 294 294
294 295 297 295 295 295 296 297 299 298 298 298 295 293 293 294 298 303 304 306 306 308 308 308 308 306 307 307 306 307 310 307 299 296 293 299 307 306 305 303 301 300 300 297 298 298 298 297 297 297 295 295 296 296 296 293 293 295 296 297 295 297 295 293 292 292 293 293 293 295 292 292 292 292 291 291 290 293 291 292 295 295 296 296 295
Wind_Speed
5 4 4 4 4 4 3 3 4 3 3 3 3 2 1 1 2 3 3 3 3 4 3 4 4 3 4 5 4 4 4 4 5 4 4 4 4 6 7 5 3 8 7 8 8 8 7 8 8 7 7 8 8 8 8 7 7 8 7 7 8 7 6 6 7 7 6 7 8 7 7 8 7 8 8 8 8 9 9 9 8 9 10 9 10
5 3 5 4 4 4 3 3 4 2 3 3 1 2 2 1 1 2 2 2 3 3 3 4 4 3 3 4 4 4 4 5 5 5 4 4 4 4 7 4 5 6 8 8 8 8 8 8 8 8 8 8 7 7 7 7 8 8 7 7 7 6 7 6 6 6 6 6 7 8 8 7 7 7 7 8 8 9 9 9 8 8 9 9 9
5 4 4 4 3 3 3 3 3 2 2 2 1 2 2 2 1 1 2 2 2 2 3 4 4 4 3 3 3 4 3 3 4 4 4 4 4 4 3 4 6 3 2 8 8 7 7 7 7 8 9 8 7 8 7 7 8 7 8 7 6 5 6 5 5 5 5 6 6 6 6 6 7 7 7 8 8 9 9 9 8 9 9 9 8
5 5 5 4 3 3 2 2 2 2 3 2 3 2 2 2 2 2 2 2 2 3 3 4 5 4 3 3 3 3 3 4 4 4 4 4 4 3 3 2 5 5 4 7 8 7 6 6 7 7 7 7 7 7 7 8 8 8 8 8 7 6 5 5 5 5 5 5 6 5 5 5 7 7 7 7 7 7 8 9 9 8 9 9 10
4 5 5 4 3 3 3 2 2 2 2 3 4 2 2 2 3 2 2 2 3 3 4 4 5 4 4 5 4 4 4 4 4 4 4 3 3 3 3 2 3 4 5 6 8 6 6 6 6 6 6 6 6 7 8 7 6 7 7 7 7 6 5 5 5 5 4 5 4 4 5 6 6 7 7 7 7 7 8 9 10 9 9 9 9
5 4 4 4 3 3 3 2 2 2 2 3 3 3 3 3 2 2 3 2 2 2 3 5 4 4 5 5 5 4 4 5 4 4 3 3 2 3 3 3 3 3 4 6 5 5 2 2 5 5 6 5 5 5 8 7 6 6 6 6 5 5 5 5 5 4 4 4 4 4 4 5 5 6 6 6 7 7 7 8 7 7 8 8 8
4 5 4 4 4 3 3 2 3 3 3 2 3 2 3 3 2 3 2 2 3 4 4 4 4 6 5 5 5 5 6 6 5 4 4 3 3 3 4 2 3 4 4 4 3 3 3 3 3 2 3 5 5 5 6 6 5 6 6 6 5 5 5 5 5 4 4 4 3 4 4 4 5 4 5 5 5 5 6 5 6 6 7 6 8
4 4 4 4 4 4 3 2 3 3 2 2 2 3 3 3 2 2 3 2 3 4 4 5 6 6 6 6 6 6 6 5 5 5 4 3 3 5 5 6 4 3 4 4 3 3 4 2 4 5 8 7 5 3 6 5 5 7 6 6 6 6 5 5 4 5 4 3 3 3 3 4 3 3 3 4 4 4 4 5 5 6 5 6 7
4 4 4 4 4 4 2 4 3 4 3 2 2 2 3 3 2 2 2 3 3 4 5 6 6 7 7 7 6 5 5 4 4 4 4 4 4 5 5 2 1 4 4 4 4 4 5 8 7 8 7 2 4 4 4 5 6 7 7 5 6 5 5 5 4 4 4 3 3 3 3 3 3 2 3 2 3 4 3 3 4 4 5 5 5
4 4 4 3 3 3 4 5 4 4 3 2 2 3 3 3 3 2 3 3 4 5 6 7 6 7 7 7 6 5 5 4 4 4 5 5 5 5 3 2 3 4 4 4 5 4 4 7 10 9 8 9 9 11 7 2 4 4 4 2 3 4 5 5 4 4 5 4 3 4 4 3 3 2 2 1 0 2 2 3 3 4 4 5 4
4 4 5 4 3 4 4 5 5 4 4 3 3 3 4 3 4 3 4 4 4 4 6 8 9 8 8 7 6 6 4 4 4 5 4 4 5 5 3 3 5 5 5 4 4 4 4 4 4 4 5 10 11 12 12 11 9 6 5 4 2 2 4 3 3 4 5 4 4 4 5 4 5 4 3 3 2 1 1 2 2 3 3 3 4
4 4 4 4 4 4 5 4 5 4 4 4 3 3 5 5 4 5 5 6 5 5 7 8 8 8 8 8 7 6 6 5 6 6 5 5 5 4 5 5 5 5 5 4 4 5 5 5 4 4 5 9 12 11 11 10 9 9 7 3 2 4 2 3 3 3 4 6 6 5 7 6 5 5 4 4 4 3 2 2 1 2 2 2 2
4 5 5 4 4 3 3 4 4 4 5 5 4 4 4 5 4 3 4 4 3 4 5 6 9 7 7 8 7 6 6 7 8 7 6 5 3 4 4 5 5 5 4 5 5 5 5 4 4 4 4 4 7 10 10 9 9 9 7 3 5 4 5 6 5 7 4 4 5 4 7 6 6 5 6 4 3 2 1 1 1 1 1 1 1
4 4 4 5 4 4 4 4 4 3 3 3 3 4 5 5 4 3 3 3 3 4 4 4 4 5 7 5 6 5 6 7 8 7 6 6 4 3 4 4 5 4 4 5 4 4 4 4 4 4 4 5 6 6 7 8 8 8 5 2 4 4 4 3 5 7 7 5 5 3 3 5 6 6 5 5 3 2 1 1 2 3 3 2 2
4 4 5 4 5 5 4 4 4 4 3 3 4 4 5 6 5 5 4 2 2 2 3 1 4 4 4 5 1 2 3 4 5 7 6 6 5 5 6 4 3 5 4 3 4 3 5 4 5 5 5 6 6 6 6 6 7 7 4 4 5 4 3 2 2 4 5 4 3 5 6 7 6 6 6 5 3 3 3 3 3 4 4 3 3
4 4 4 5 5 5 4 4 4 4 5 4 4 4 4 5 5 5 6 4 2 4 2 1 3 8 3 1 2 2 4 2 4 4 5 7 6 6 5 5 5 6 5 6 6 6 5 5 6 5 5 5 5 5 5 5 6 7 7 7 8 7 6 5 5 5 2 1 3 4 6 3 5 7 7 5 6 7 4 5 4 4 5 4 3
4 4 4 5 4 5 5 4 4 4 4 4 4 5 5 5 6 6 6 5 5 3 3 2 4 1 6 5 3 1 1 3 3 4 4 5 7 6 7 7 7 6 5 5 6 6 5 5 6 6 5 6 6 6 5 5 4 5 6 9 9 9 9 8 9 8 8 6 2 3 6 2 4 8 8 5 4 6 7 6 4 4 5 5 4
4 4 4 4 4 4 4 4 4 3 3 4 4 3 4 5 6 6 5 3 4 4 3 1 2 2 2 1 3 3 6 5 1 3 4 6 6 7 7 7 6 5 5 6 6 5 4 5 5 5 5 5 5 5 5 5 5 5 6 8 11 11 11 12 12 9 9 6 5 5 8 6 6 5 7 7 2 5 5 3 6 5 6 6 6
4 3 4 3 4 4 4 4 4 4 2 3 4 5 5 5 4 5 5 5 4 4 5 4 3 2 1 0 2 2 7 7 3 5 5 2 4 5 7 7 7 7 7 6 6 5 4 4 5 5 5 4 4 3 3 4 6 8 12 12 12 12 13 14 16 13 13 12 14 13 16 17 15 13 13 14 11 9 7 6 3 2 4 4 4
5 4 5 5 5 5 4 4 5 5 4 5 5 4 3 2 4 4 4 5 6 6 5 5 6 2 2 3 5 5 3 3 6 5 6 7 6 6 6 6 7 7 7 6 6 5 5 4 4 4 4 4 3 3 4 4 4 5 6 9 10 12 14 15 14 12 14 16 18 18 18 17 16 16 16 16 16 16 16 15 14 14 13 10 8
4 5 5 5 4 5 5 5 4 4 4 4 4 5 6 5 4 4 6 5 5 4 5 5 5 4 4 4 5 5 5 4 4 4 5 7 5 5 6 5 8 7 6 6 5 5 5 4 4 4 4 4 4 4 4 4 4 4 6 10 10 13 13 14 15 15 15 17 18 18 18 17 17 16 16 16 16 15 15 15 15 16 15 16 16
4 3 3 4 4 4 5 4 4 3 3 4 4 4 4 4 5 5 5 6 4 5 6 5 3 5 5 6 5 4 6 5 4 6 6 4 7 7 6 6 5 5 6 5 6 5 5 4 4 4 4 3 3 4 4 4 4 4 7 12 10 10 9 13 15 15 14 15 16 18 18 17 17 17 16 16 16 15 15 15 15 15 15 15 14
3 3 3 3 4 4 5 5 4 4 4 4 4 4 3 3 2 3 4 5 5 5 4 4 4 5 5 6 6 7 6 5 7 5 5 6 8 7 5 6 7 5 5 4 4 4 4 4 4 3 3 3 3 3 4 4 5 7 10 12 11 12 12 13 14 14 14 14 14 16 17 17 16 16 16 15 15 15 15 15 15 15 14 14 14
3 4 3 3 4 4 4 4 5 5 5 4 4 3 3 3 3 3 2 1 4 6 5 5 4 3 4 4 5 4 3 6 6 6 7 8 8 8 6 6 6 4 2 3 4 4 4 4 3 3 3 3 3 3 3 4 6 10 7 10 10 12 12 13 13 14 14 14 14 15 17 17 17 16 16 16 16 16 16 16 15 15 14 14 14
2 4 3 4 5 5 4 5 5 4 4 5 4 4 4 4 3 3 2 4 4 6 6 6 6 5 5 3 4 3 4 4 6 7 6 7 9 9 6 3 5 3 1 2 2 2 3 3 3 3 3 3 3 3 3 4 4 7 7 8 11 11 12 12 12 11 13 13 14 14 15 17 17 16 16 15 15 15 14 14 12 12 12 13 14
4 3 5 4 3 4 5 5 4 5 5 5 5 4 4 4 4 4 3 2 2 4 5 6 4 3 5 5 4 4 4 6 7 8 9 9 9 10 9 6 5 3 1 1 2 2 2 2 2 2 2 2 2 3 3 4 4 8 9 6 9 11 11 11 11 9 11 12 12 12 12 13 14 15 14 14 13 12 11 10 10 10 10 11 12
5 4 3 4 5 5 4 5 4 5 5 5 5 5 4 5 4 4 3 2 2 3 4 5 5 6 5 6 6 5 6 6 7 8 8 9 10 10 11 10 4 2 2 2 2 2 2 2 1 2 2 2 2 3 3 3 5 8 6 6 5 10 11 11 11 11 9 9 10 10 11 11 11 10 10 11 10 10 10 11 10 10 10 10 12
3 3 3 5 6 5 5 5 4 4 4 5 5 5 5 5 4 4 4 3 3 4 3 4 4 5 5 5 6 5 5 6 5 7 7 8 8 8 7 9 10 4 1 1 2 1 1 2 1 1 2 2 1 2 3 4 4 5 5 5 5 5 9 10 10 9 9 9 9 9 9 9 9 9 9 9 9 9 10 9 9 9 9 10 11
4 2 4 3 4 6 6 5 4 3 5 5 6 6 5 5 5 4 4 4 5 5 4 4 4 4 4 5 5 6 5 5 5 6 7 6 6 6 5 8 9 9 5 3 3 3 3 3 3 2 2 2 2 1 2 3 3 4 4 5 5 4 6 8 8 8 8 9 8 7 7 7 6 7 7 7 7 7 7 6 7 7 8 8 9
3 3 3 4 4 4 6 5 4 3 4 5 6 6 6 6 5 5 4 3 5 5 5 4 4 4 5 6 5 6 5 6 7 7 7 7 7 6 3 2 5 9 5 6 5 3 4 2 1 3 2 3 2 2 2 2 4 4 4 4 5 4 6 6 7 6 7 7 7 7 6 5 5 5 5 4 5 4 4 5 5 5 6 7 7
5 4 5 4 4 4 4 5 4 4 4 5 5 6 5 6 5 5 4 4 5 6 4 4 3 4 6 7 5 5 5 6 7 6 6 6 6 5 4 4 2 5 7 5 5 4 2 4 4 2 3 4 2 2 1 1 2 3 3 3 3 5 6 4 5 5 5 5 5 5 6 5 4 3 3 3 3 3 3 3 2 3 4 4 5
5 5 5 5 4 5 4 5 5 4 5 4 5 6 6 5 5 5 4 4 6 5 4 5 4 5 6 7 5 5 5 6 6 6 6 6 6 5 4 4 3 4 5 4 5 6 4 3 4 3 2 4 3 3 2 1 1 3 1 1 2 3 2 2 3 3 3 4 4 4 4 5 4 3 4 4 4 3 2 2 2 2 2 1 2
6 5 5 5 4 5 5 4 5 5 5 4 4 5 6 5 5 5 4 5 6 4 4 5 5 5 6 7 6 4 5 6 5 5 5 5 5 4 3 4 4 4 5 4 4 4 2 0 2 3 3 4 3 3 4 3 3 2 2 1 2 2 2 1 1 3 3 3 4 5 5 5 6 5 5 4 4 4 3 3 2 2 2 3 2
5 6 5 4 3 4 4 5 5 5 5 5 4 5 6 5 4 3 4 5 5 4 4 5 5 4 5 6 6 6 5 6 5 5 5 5 5 5 4 4 5 5 4 4 3 5 6 3 2 1 3 4 5 3 5 5 4 2 3 2 1 1 2 1 1 2 1 2 3 5 6 8 8 7 6 5 4 5 6 6 5 4 3 4 4
4 6 6 4 4 3 3 4 4 4 5 5 4 5 5 5 5 4 4 4 4 4 4 4 4 3 6 6 5 5 4 6 5 3 3 4 3 5 5 4 4 3 3 1 4 4 7 5 2 4 4 4 4 4 4 3 2 3 3 2 1 1 1 1 2 2 3 6 8 9 10 10 10 10 9 7 8 8 7 7 7 6 4 2 3
6 5 4 4 4 3 3 3 4 4 4 4 4 4 5 5 5 5 4 3 4 4 5 4 4 4 5 5 4 5 5 6 4 4 4 4 4 5 5 5 5 5 5 3 2 5 4 6 5 5 4 5 2 1 2 1 2 2 1 1 1 2 2 2 3 4 6 12 13 12 11 10 10 9 8 9 10 10 10 9 8 8 6 2 2
5 6 4 2 3 4 5 5 5 4 5 5 5 4 3 3 4 5 5 4 4 4 3 3 2 4 3 4 5 5 5 5 3 3 3 5 4 4 5 4 5 4 4 4 4 3 6 7 5 2 2 2 1 2 4 4 2 2 2 2 2 3 4 3 4 4 8 11 10 11 10 10 9 9 10 11 11 11 11 11 10 10 9 6 2
4 5 5 3 3 4 3 5 5 5 5 5 5 5 5 4 3 3 3 3 4 4 3 3 3 3 4 5 5 4 5 5 4 4 3 4 4 4 5 4 4 4 5 4 3 4 6 6 6 4 2 5 2 2 2 3 5 4 3 3 4 3 4 5 4 4 3 3 4 4 5 6 7 9 10 11 11 11 12 11 11 11 10 9 7
5 5 3 2 1 2 3 3 3 4 4 4 3 3 3 4 4 4 3 3 4 4 5 5 4 4 3 4 4 4 4 5 5 5 5 5 4 5 5 5 4 5 5 4 4 4 5 5 2 2 4 0 2 4 2 3 3 3 5 5 4 2 3 4 4 3 3 4 5 7 6 5 6 6 9 11 11 11 11 12 11 11 10 10 9
4 5 5 4 3 2 3 4 4 3 4 3 2 2 3 3 3 4 4 5 4 4 4 5 5 6 6 6 6 6 5 5 5 5 6 5 4 5 3 4 5 6 5 4 4 4 5 4 4 5 3 3 2 2 1 4 4 1 1 3 7 5 3 4 3 3 2 2 4 4 4 4 4 6 8 9 11 10 10 9 10 9 10 11 11
1 3 3 3 3 2 1 1 1 1 3 3 3 3 4 3 3 4 5 4 4 4 4 3 3 4 4 5 6 6 6 5 5 6 5 6 6 4 3 4 5 5 5 4 4 4 4 4 4 2 4 4 4 5 5 5 8 7 5 3 4 3 4 5 3 2 1 2 2 3 3 3 3 4 4 4 5 7 7 6 5 7 9 10 10
1 0 2 2 3 3 3 2 1 1 3 3 4 6 5 4 5 3 2 3 4 4 3 3 3 4 4 4 3 5 6 6 7 7 7 8 5 4 6 6 6 5 5 5 5 5 5 5 6 6 6 6 7 7 7 5 2 3 6 6 7 4 5 4 2 1 2 1 2 3 2 2 1 3 3 4 3 4 2 3 3 4 6 8 8
2 1 1 2 3 3 3 3 3 4 4 4 6 7 8 6 4 4 5 5 4 3 4 4 6 6 5 4 3 2 4 5 6 7 8 8 7 5 8 8 8 8 6 5 5 5 6 6 4 4 6 7 7 5 5 5 4 6 6 6 7 6 6 5 4 1 1 1 2 2 2 2 1 3 3 3 2 2 2 2 2 3 4 5 4
4 4 3 1 1 0 1 2 2 3 4 4 5 5 6 7 7 5 4 4 5 5 5 5 6 6 6 5 4 3 3 4 4 5 5 5 4 3 5 8 7 5 5 7 6 4 5 6 5 7 6 7 6 6 5 6 6 4 5 6 6 6 6 4 4 4 2 1 2 3 2 1 1 2 3 2 1 0 0 1 2 1 2 2 2
5 6 4 4 4 3 2 1 1 1 2 4 6 6 6 5 6 5 4 4 5 5 5 6 6 6 6 5 6 4 4 4 3 3 3 3 2 2 0 2 3 5 6 6 6 6 6 6 7 7 9 7 6 8 8 9 7 9 6 5 5 5 4 5 4 2 2 1 2 2 2 1 2 1 2 1 1 1 1 1 2 2 2 1 1
6 5 4 5 4 5 4 4 4 4 4 6 7 7 8 8 5 3 5 5 5 5 6 6 6 6 6 6 6 6 5 4 4 4 4 4 4 4 3 3 4 4 4 4 6 8 6 6 8 9 8 7 9 9 9 9 11 10 8 7 6 6 5 5 3 4 2 1 3 3 1 1 1 0 0 1 1 1 2 3 4 3 4 4 4
7 6 6 6 6 5 5 5 5 5 4 7 6 6 6 5 5 3 4 4 4 5 6 6 6 6 6 5 5 6 5 5 4 5 5 6 5 4 4 4 4 2 1 1 2 0 3 4 4 6 5 7 5 9 10 8 8 8 7 8 8 6 6 4 4 2 1 2 1 1 2 1 0 1 1 2 2 3 2 3 5 5 5 6 6
7 6 7 7 7 7 6 6 6 7 7 11 11 9 6 5 3 1 1 2 4 5 6 5 5 4 4 4 5 6 6 6 7 9 7 5 5 5 6 5 4 1 1 1 3 3 2 1 1 3 3 7 7 10 10 9 7 7 7 7 8 7 7 5 3 1 1 2 2 1 1 1 1 0 2 2 2 4 4 2 3 4 5 6 7
7 8 7 7 6 7 8 8 8 7 8 13 15 13 10 5 2 2 2 2 3 5 6 6 5 5 5 5 6 6 7 7 8 8 9 7 5 6 6 6 4 4 3 2 5 6 6 8 11 14 14 13 10 7 7 9 10 9 9 9 6 6 7 4 1 1 2 1 2 2 2 1 1 1 3 2 3 4 4 3 1 2 5 7 9
8 7 5 6 7 8 8 8 8 7 7 10 15 15 12 8 3 3 3 3 4 5 6 6 5 5 6 8 7 6 7 8 7 7 8 8 6 6 6 6 6 7 5 2 3 4 8 11 13 15 16 16 13 10 8 6 5 6 8 8 7 6 5 4 4 3 0 1 1 1 1 1 1 1 2 3 2 3 3 2 2 3 4 6 8
7 6 7 7 6 7 7 7 9 8 7 8 13 14 14 9 4 3 3 3 4 6 5 7 6 5 6 6 8 9 8 8 8 8 9 8 7 7 8 7 8 9 8 7 7 7 6 8 6 8 9 11 10 8 6 3 5 3 1 6 7 7 6 4 5 3 0 1 0 1 0 1 1 0 1 4 2 2 1 1 2 3 3 4 4
Wind_Direction
113 115 109 104 111 113 101 107 106 102 92 80 108 116 77 50 59 49 51 49 43 47 63 69 73 68 112 130 128 126 127 129 136 133 120 119 129 149 153 162 85 135 124 120 120 118 125 125 125 123 117 107 105 104 106 106 99 98 90 80 74 75 75 67 67 67 67 64 62 68 71 67 65 59 53 61 58 61 53 54 51 54 63 51 49
119 111 118 121 118 108 105 117 121 109 99 108 124 123 125 92 62 62 63 47 45 28 52 68 66 65 64 108 127 132 135 148 146 127 115 110 109 136 151 142 106 149 139 130 127 126 129 135 135 127 122 122 122 121 117 113 108 99 92 83 76 79 77 74 74 72 65 62 58 58 55 59 67 66 55 55 58 59 63 60 60 55 55 52 44
126 130 123 128 127 116 111 109 119 115 112 115 126 122 114 110 89 82 58 52 46 31 44 66 60 56 61 105 119 120 124 110 93 88 97 95 86 77 117 130 104 94 101 140 134 130 136 129 133 136 131 134 137 135 129 123 119 113 110 103 101 85 83 80 84 77 66 60 59 60 61 57 66 72 67 59 53 51 63 62 57 53 60 61 61
132 136 135 134 127 118 105 123 134 104 126 134 123 110 114 100 93 86 74 65 61 48 47 72 68 57 66 76 63 74 67 68 84 87 80 81 82 68 69 67 111 114 107 125 125 135 144 135 132 135 138 138 144 138 139 135 134 136 130 127 123 126 117 101 83 75 71 63 57 56 60 61 56 52 58 60 54 51 54 61 60 56 53 52 52
133 141 144 145 143 144 141 140 131 128 130 134 128 117 98 90 78 82 77 72 66 45 51 62 59 49 58 62 68 74 72 72 79 87 92 93 77 80 69 70 79 90 97 125 135 148 153 148 145 142 141 144 148 151 144 141 150 142 134 133 133 130 119 106 90 78 68 63 54 49 49 49 48 53 49 48 47 47 54 54 51 51 56 53 47
142 137 132 139 142 157 158 143 139 129 126 131 126 132 125 120 114 103 81 70 63 33 49 57 50 54 56 63 70 74 79 80 82 89 104 108 104 80 77 76 87 90 83 112 141 143 151 144 147 166 161 156 160 159 151 156 155 134 136 134 137 124 112 100 96 93 89 76 60 48 53 54 53 51 54 50 46 43 51 60 58 57 56 63 65
150 146 142 133 135 133 150 147 133 136 121 128 134 124 124 124 123 111 80 65 65 52 50 59 63 61 61 71 79 78 77 89 100 108 121 132 82 76 64 69 103 83 84 78 94 114 95 71 78 164 119 158 171 179 158 153 151 139 146 141 133 125 118 120 116 114 100 86 78 75 66 71 63 63 62 58 52 52 47 56 67 62 55 54 60
138 138 136 139 141 155 151 142 147 127 117 131 142 133 124 105 60 118 109 81 74 61 56 67 67 71 70 75 82 87 93 106 121 129 134 116 80 63 22 39 4 56 82 75 82 128 126 155 72 64 120 170 189 191 169 170 142 152 158 149 143 141 140 136 142 131 123 131 129 116 98 86 70 67 70 62 51 51 48 44 54 64 64 53 41
137 137 134 142 139 137 150 151 146 136 138 132 126 129 131 115 76 75 83 114 94 94 74 74 74 71 72 78 80 90 100 108 122 132 119 96 83 79 85 54 50 64 58 70 72 88 79 70 65 67 64 116 195 215 174 173 178 162 160 154 153 149 151 144 150 150 147 158 151 131 121 103 87 76 76 63 55 53 52 47 50 46 51 62 49
140 138 130 141 143 143 150 155 142 138 126 124 117 115 112 118 108 62 78 98 108 106 90 80 77 73 68 65 68 73 86 104 124 120 108 104 90 87 116 120 103 60 64 54 69 67 66 67 64 56 55 61 61 68 82 132 174 133 109 133 165 157 164 171 162 170 167 171 158 147 139 140 149 143 119 106 63 53 61 50 35 40 35 45 47
148 145 136 144 139 150 156 152 142 133 127 129 131 118 110 98 118 91 66 82 112 101 103 91 82 75 68 63 63 65 72 82 77 74 75 101 116 108 89 61 67 66 64 65 67 73 73 72 68 67 52 58 63 66 68 61 66 84 84 58 59 215 192 177 186 179 190 182 163 161 159 175 182 177 172 180 172 193 69 63 32 34 37 21 21
154 143 143 142 152 162 157 155 141 141 142 145 154 145 129 119 116 114 97 80 72 97 104 96 80 73 65 58 52 57 64 60 60 55 54 54 61 75 74 70 72 72 71 74 72 75 78 76 72 70 65 64 62 64 65 63 59 67 72 66 272 274 262 175 177 195 218 203 190 181 176 191 201 198 189 197 193 176 184 122 17 22 24 11 341
144 138 144 147 130 132 145 143 127 137 153 169 164 143 139 125 117 94 109 102 81 101 106 107 102 80 69 66 56 46 54 57 63 68 65 63 57 65 63 72 73 64 66 69 71 74 71 70 76 66 60 64 61 57 55 52 52 55 59 74 261 245 262 247 220 209 223 239 207 215 183 187 206 211 207 210 211 211 218 190 163 221 259 299 284
143 137 140 143 141 150 162 152 131 147 152 155 145 140 132 132 129 95 60 115 121 150 162 110 60 117 117 97 72 47 46 46 52 66 75 74 74 81 62 64 59 50 38 60 52 70 72 58 63 60 54 56 58 54 54 54 53 50 55 314 302 305 287 282 226 216 221 232 220 190 209 210 216 228 229 224 212 206 237 268 219 236 233 246 270
146 143 144 155 156 155 166 154 151 153 143 139 133 138 155 152 153 139 127 80 107 176 184 21 130 117 91 101 74 91 11 39 47 49 68 62 55 79 94 60 63 105 102 78 62 72 75 69 64 61 59 63 63 58 51 57 59 54 34 350 334 340 356 343 243 238 227 210 199 203 211 221 236 246 242 241 237 214 220 234 239 228 238 248 258
156 150 148 155 158 162 154 157 156 164 157 152 158 162 164 151 134 142 140 136 147 191 203 180 135 141 112 74 171 117 107 67 55 32 55 81 84 78 82 92 75 81 92 91 86 79 69 68 69 62 60 64 62 58 56 55 50 48 29 12 10 2 352 10 24 39 86 263 324 168 178 228 258 245 261 310 347 343 312 252 258 213 229 245 272
156 150 147 152 151 145 155 148 146 161 150 148 167 184 188 170 155 149 171 154 167 175 176 173 195 119 145 113 70 56 225 126 101 47 37 67 58 73 81 84 75 75 98 98 84 74 72 66 63 55 47 51 55 64 62 58 52 46 33 33 32 30 31 30 52 50 60 39 68 197 154 91 22 33 45 46 25 25 15 310 275 267 233 239 257
144 145 143 141 144 143 136 138 154 162 172 169 164 148 176 166 179 163 157 196 149 143 173 41 161 127 180 167 166 170 158 152 138 86 46 59 78 76 84 86 87 83 77 88 87 80 70 75 65 59 50 48 51 63 60 55 55 51 44 40 39 36 34 40 65 62 71 67 60 49 70 73 88 50 21 7 40 54 29 324 241 250 272 261 254
125 136 141 138 133 140 141 150 163 171 170 146 169 192 190 193 154 157 167 142 128 157 176 167 91 52 344 291 126 107 150 140 126 123 114 55 63 78 78 81 85 86 83 75 75 72 52 57 58 61 55 50 53 51 57 43 46 53 56 53 47 50 53 51 65 69 71 69 77 78 77 77 73 70 69 74 75 70 60 46 38 284 326 22 336
127 132 144 142 141 139 144 152 166 176 172 189 189 187 168 182 178 167 143 161 163 162 176 176 167 160 19 58 88 100 94 105 132 146 126 129 102 81 81 83 77 70 63 54 50 62 64 49 61 65 69 59 57 57 57 59 49 48 47 45 51 56 57 58 61 64 80 79 75 75 76 75 74 69 66 65 62 60 62 64 63 59 55 51 41
84 122 144 145 146 145 142 138 145 163 163 161 169 168 172 170 171 162 170 157 173 161 154 178 144 159 118 52 79 84 74 64 97 81 127 129 115 113 113 81 77 63 55 50 44 43 44 48 52 53 55 55 54 58 63 67 65 60 62 67 58 64 60 60 59 61 61 70 76 77 78 77 75 72 69 66 63 60 58 54 50 49 49 47 45
54 65 109 130 132 129 121 126 131 131 122 140 137 145 170 180 184 184 173 163 149 164 176 168 166 155 160 151 124 112 94 74 47 107 62 43 132 132 119 117 87 47 42 41 42 42 46 42 47 41 44 44 45 56 57 65 68 70 68 67 57 55 57 64 60 59 62 68 72 73 72 73 71 68 65 63 61 58 56 56 54 51 48 49 50
75 66 83 118 118 118 124 128 124 121 124 132 157 164 173 162 148 158 176 174 145 137 112 145 153 149 147 158 157 153 159 157 163 156 137 130 122 119 118 87 95 76 27 39 50 50 53 49 46 46 42 47 44 54 60 63 69 66 68 69 65 66 62 63 62 58 55 57 67 71 70 68 67 66 64 62 60 59 55 52 50 47 46 46 47
66 86 79 108 120 115 117 111 110 113 109 121 118 112 108 103 106 134 168 92 115 129 137 145 154 148 145 145 157 140 125 140 157 143 140 139 126 131 111 101 84 74 118 65 53 56 54 52 51 53 50 59 54 55 57 58 64 62 60 55 58 67 69 68 65 63 59 56 54 63 68 67 64 63 60 57 55 53 52 50 47 42 39 40 42
82 103 121 143 140 127 125 120 108 106 117 106 96 102 115 111 115 103 122 161 158 143 147 164 161 162 180 178 134 121 118 124 120 131 115 121 128 125 112 96 123 120 48 52 45 41 41 61 62 57 62 67 63 55 61 60 58 56 59 57 55 61 65 69 68 65 66 65 62 56 58 63 63 61 59 57 56 57 55 50 43 37 35 33 32
166 166 170 145 127 130 124 111 110 114 111 107 102 100 104 111 118 123 136 150 121 149 139 137 146 143 143 138 139 120 127 137 134 133 136 134 138 132 126 105 99 109 66 13 22 77 45 37 44 69 65 68 70 68 59 63 60 61 62 64 57 61 64 66 66 64 68 68 66 61 57 56 58 58 56 55 53 52 53 53 48 44 39 36 32
168 167 156 136 132 120 122 115 117 118 118 104 94 86 87 87 73 77 58 38 74 88 94 127 138 143 152 155 144 140 142 144 145 147 147 149 148 151 138 129 96 22 19 15 7 32 139 16 23 67 69 79 63 75 70 65 73 70 69 64 63 57 60 61 62 66 65 67 67 66 64 65 63 59 56 54 49 45 40 38 38 40 39 36 35
162 132 147 143 136 124 110 108 109 112 107 109 102 93 91 94 84 76 70 32 64 70 54 93 114 132 139 137 123 127 140 143 141 146 151 151 149 152 144 132 135 133 4 87 360 42 205 111 6 77 135 112 98 75 89 81 71 77 78 77 73 59 59 62 60 60 61 62 61 60 60 64 69 68 62 58 52 45 44 37 31 28 32 37 37
135 121 120 113 126 129 120 108 92 98 99 92 92 90 88 84 90 83 71 49 75 62 41 63 65 95 94 104 117 126 131 126 125 137 141 141 147 149 161 147 144 129 141 166 227 164 225 194 143 194 163 157 125 102 107 92 103 107 100 93 90 88 71 73 70 68 69 67 64 63 60 53 55 67 70 67 66 60 48 35 30 27 21 26 35
119 106 102 109 107 109 116 103 95 82 97 86 85 89 92 83 85 80 66 67 85 63 46 63 49 76 93 85 102 113 132 134 142 142 147 151 154 163 146 113 146 140 156 150 195 209 171 217 211 147 190 178 156 140 153 143 133 123 115 117 116 114 104 99 91 84 83 82 77 74 74 64 50 40 50 58 64 62 57 51 38 26 29 25 20
120 115 104 101 103 92 101 108 95 93 81 84 88 80 82 87 66 66 39 50 74 67 27 49 25 76 87 86 86 101 119 124 131 135 138 147 161 154 149 142 84 134 134 120 138 222 172 178 243 254 159 183 173 141 114 62 136 116 115 118 113 131 122 110 111 104 103 99 94 93 99 87 66 45 23 22 26 41 41 29 22 34 39 41 22
129 124 118 122 123 116 109 115 105 89 85 72 85 93 82 77 81 67 35 66 72 67 52 37 47 65 86 87 87 109 118 121 130 146 156 162 162 168 160 149 121 123 126 122 131 168 203 171 199 208 179 156 163 166 180 124 139 132 96 80 120 123 88 76 98 92 93 91 90 79 73 76 71 53 30 8 356 355 16 329 330 24 346 17 26
134 125 123 129 135 135 134 133 127 119 110 92 80 95 90 84 66 83 59 67 78 53 69 49 37 70 85 98 95 100 129 128 143 148 156 169 170 175 139 143 142 152 140 113 120 117 109 226 139 179 163 148 174 200 175 160 153 162 121 125 130 130 103 90 75 38 36 45 58 53 51 50 47 40 24 5 360 18 16 355 326 290 268 283 301
138 129 123 132 141 146 140 138 125 122 119 113 108 103 107 99 83 68 83 86 84 62 71 67 41 44 71 84 89 100 111 120 132 153 166 170 182 179 192 183 184 182 192 113 128 145 174 168 140 72 153 203 181 192 188 181 192 167 172 153 105 121 131 139 148 111 60 89 71 58 51 46 42 37 31 27 41 50 39 25 3 337 277 252 269
133 127 134 137 155 153 139 132 123 120 125 122 124 116 123 125 119 93 96 116 124 110 94 104 85 72 73 76 69 92 113 103 98 107 126 172 178 200 205 191 202 201 243 88 125 136 166 199 180 159 176 183 187 182 196 205 165 176 174 188 147 127 113 142 85 100 74 96 80 65 54 46 40 34 28 28 31 37 41 36 26 11 351 277 255
143 117 106 135 146 148 137 124 129 132 129 132 132 139 149 144 136 136 130 119 127 139 147 160 141 96 110 92 84 91 84 77 63 104 119 145 173 201 218 209 193 186 196 220 154 132 166 166 214 189 181 163 201 73 132 81 125 144 186 109 106 97 100 82 88 84 81 72 58 50 45 43 40 33 31 36 38 40 40 41 39 35 36 58 236
129 117 111 115 146 145 153 159 151 157 163 155 143 144 153 152 147 147 150 148 150 157 166 173 147 133 117 119 145 131 117 105 89 78 106 125 138 161 191 198 190 180 183 199 171 131 145 182 186 176 131 115 129 136 164 143 109 81 60 70 90 110 88 79 90 81 70 62 63 53 43 42 43 42 48 50 49 47 45 44 45 46 43 41 42
115 109 130 143 177 169 167 171 170 164 165 168 164 168 164 152 132 128 136 149 158 154 166 211 160 162 150 154 159 158 136 136 162 148 132 128 129 136 158 174 174 168 179 190 155 146 169 179 168 154 162 155 138 109 193 172 139 111 80 86 72 46 105 92 55 55 39 55 39 49 49 54 60 58 56 55 52 50 48 48 50 52 52 51 48
125 122 112 151 214 182 165 154 158 162 163 160 159 152 150 149 148 148 155 164 172 175 171 178 184 168 163 149 164 178 164 154 155 166 148 135 138 145 158 158 154 154 165 170 158 152 164 146 136 157 150 51 149 160 126 130 107 144 145 130 83 49 43 84 94 47 34 56 71 70 61 64 66 67 59 57 52 49 49 49 51 56 59 59 58
122 135 152 180 215 186 186 182 179 159 148 154 159 156 139 146 153 167 181 180 178 182 188 190 184 175 176 181 181 193 188 186 169 167 156 149 144 137 156 145 149 150 163 155 150 159 158 172 167 167 181 149 108 33 122 133 116 56 187 145 148 149 100 48 43 56 24 68 47 47 48 70 73 67 59 56 49 45 46 51 51 57 60 61 60
107 147 154 159 187 238 254 208 167 126 152 173 177 173 170 169 157 178 188 186 178 195 209 218 217 198 202 194 188 187 200 190 186 167 176 157 148 153 183 153 151 158 153 162 164 158 164 168 159 101 144 157 174 146 160 185 191 183 169 145 118 96 126 108 63 28 20 56 67 50 46 15 57 49 53 55 37 38 43 44 54 58 64 64 61
303 139 145 163 193 215 227 244 205 197 217 207 196 187 180 181 182 179 177 201 202 207 211 238 273 267 246 238 225 195 191 184 181 181 172 178 189 175 167 168 164 162 172 168 176 181 166 180 191 169 169 192 188 188 182 203 115 88 129 144 131 152 105 88 75 350 1 71 107 89 63 21 105 93 62 65 38 36 44 43 42 63 69 68 66
353 39 130 193 222 234 230 218 221 232 244 241 224 200 196 188 179 186 193 212 199 214 224 229 241 246 249 233 252 262 189 182 184 188 191 194 197 184 174 183 175 166 161 174 197 176 184 199 186 184 198 197 207 190 191 155 177 166 157 144 123 142 152 147 178 233 283 27 119 122 90 19 257 103 84 74 45 59 51 62 355 82 90 88 77
31 42 58 63 69 359 292 294 279 277 279 299 303 263 233 212 204 200 199 199 202 209 214 222 240 248 255 254 249 268 243 217 182 178 198 210 210 200 185 189 191 190 175 172 175 183 192 195 193 210 193 203 186 174 172 165 157 128 131 141 147 154 153 168 159 168 123 298 153 134 135 29 319 93 96 88 83 334 63 322 328 352 108 101 93
68 65 51 56 35 31 75 105 303 300 286 331 326 302 264 234 229 236 221 211 207 221 219 226 232 241 247 258 266 268 264 268 232 176 177 199 222 239 216 215 237 234 245 240 202 197 176 196 203 209 206 187 169 205 192 167 148 136 147 134 151 154 153 147 162 153 139 76 123 109 166 47 2 65 86 83 129 277 258 234 287 294 295 307 285
51 50 47 57 50 48 40 40 9 6 12 17 14 3 360 356 330 258 239 219 224 228 228 227 231 236 236 235 245 251 251 250 237 205 191 200 191 186 183 197 229 241 260 283 290 296 245 213 206 214 218 174 198 181 173 160 154 157 155 156 154 145 145 139 136 112 48 279 207 139 127 184 19 317 336 321 345 262 254 254 269 282 290 290 292
38 33 23 24 24 25 19 13 20 16 31 23 23 16 36 52 43 360 316 312 273 250 243 233 230 233 233 227 226 243 248 228 221 199 199 204 191 191 176 200 204 277 42 15 326 258 242 257 258 256 232 214 206 166 161 180 161 155 156 157 160 134 113 98 84 56 81 23 39 132 216 160 244 329 264 296 326 302 280 240 246 264 275 287 297
40 39 31 33 27 28 24 22 27 20 6 9 10 13 34 43 47 11 334 306 303 306 299 287 279 275 274 251 247 255 255 256 243 206 205 179 184 199 202 200 189 149 51 9 331 264 260 259 251 289 258 195 188 165 164 153 122 115 99 91 93 108 120 123 136 333 100 18 346 107 116 210 48 359 291 311 307 297 296 289 249 260 283 302 310
41 38 37 37 29 35 34 31 29 22 20 11 9 3 1 17 34 346 321 299 281 273 267 262 259 260 252 237 235 245 250 251 248 218 202 175 199 208 215 212 202 186 223 26 43 61 89 89 81 73 57 40 36 73 118 136 134 132 114 106 129 141 124 134 141 140 169 322 358 13 96 323 58 321 300 280 296 286 284 289 305 297 299 315 333
39 27 20 39 38 37 38 34 29 35 22 14 17 9 0 352 360 337 335 317 296 280 280 276 261 255 250 244 232 235 242 247 251 216 197 180 199 206 209 209 206 219 224 136 100 68 82 84 90 94 90 82 66 35 20 40 103 119 131 150 166 143 147 154 162 165 145 293 65 76 54 279 350 168 284 277 296 239 252 277 293 313 324 329 321
39 24 27 28 29 34 33 31 27 34 21 13 19 18 15 1 350 338 327 307 291 281 283 293 300 279 280 264 244 239 236 246 241 223 198 186 210 204 212 199 215 222 212 168 153 134 122 94 77 82 82 101 112 115 110 58 351 354 84 124 139 145 143 146 124 112 94 238 166 101 33 274 285 312 329 323 285 258 330 305 310 320 320 309 315